EW8555 Weather Reports


time (UTC)temp
C
wind
direction
speed
KPH
gust
KPH
rain 1hr
cm
rain 24hr
cm
rain mn
cm
humidity
%
barometer
mb
20260504033114 16 249 3.2 9.7 0.00 0.00 0.00 63 1009.4
20260504031544 17 252 1.6 8.0 0.00 0.00 0.00 60 1009.6
20260504030047 17 269 1.6 8.0 0.00 0.00 0.00 59 1009.7
20260504024544 17 284 6.4 16.1 0.00 0.00 0.00 57 1009.3
20260504023056 17 243 1.6 6.4 0.00 0.00 0.00 55 1009.7
20260504021539 17 236 1.6 6.4 0.00 0.00 0.00 54 1009.6
20260504020039 17 237 1.6 6.4 0.00 0.00 0.00 53 1009.8
20260504014545 17 234 1.6 6.4 0.00 0.00 0.00 53 1009.7
20260504013036 17 230 3.2 6.4 0.00 0.00 0.00 51 1009.5
20260504011530 18 231 1.6 6.4 0.00 0.00 0.00 50 1009.4
20260504010029 18 262 3.2 6.4 0.00 0.00 0.00 48 1009.3
20260504004523 19 279 1.6 11.3 0.00 0.00 0.00 46 1009.2
20260504003029 19 304 1.6 14.5 0.00 0.00 0.00 45 1009.0
20260504001521 20 279 4.8 16.1 0.00 0.00 0.00 44 1009.0
20260504000020 20 290 8.0 16.1 0.00 0.00 0.00 43 1008.9
20260503234532 20 302 6.4 16.1 0.00 0.00 0.00 42 1008.8
20260503233018 20 277 8.0 17.7 0.00 0.00 0.00 41 1008.8
20260503231516 20 270 6.4 16.1 0.00 0.00 0.00 42 1008.8
20260503230017 20 284 6.4 12.9 0.00 0.00 0.00 45 1008.9
20260503224511 19 272 6.4 11.3 0.00 0.00 0.00 47 1008.7
20260503223109 19 307 4.8 12.9 0.00 0.00 0.00 48 1008.4
20260503221506 20 261 4.8 12.9 0.00 0.00 0.00 48 1008.5
20260503220004 20 284 3.2 14.5 0.00 0.00 0.00 47 1008.6
20260503214502 20 292 3.2 6.4 0.00 0.00 0.00 52 1008.7
20260503213002 20 295 1.6 4.8 0.00 0.00 0.00 49 1008.6
20260503211502 20 299 0.0 0.0 0.00 0.00 0.00 48 1008.5
20260503210001 20 299 0.0 0.0 0.00 0.00 0.00 47 1008.3
20260503204501 21 302 0.0 0.0 0.00 0.00 0.00 45 1008.2
20260503203106 21 302 0.0 1.6 0.00 0.00 0.00 43 1008.3
20260503201605 21 302 0.0 4.8 0.00 0.00 0.00 41 1008.3
20260503194600 22 305 3.2 12.9 0.00 0.00 0.00 41 1008.2
20260503193101 23 290 9.7 12.9 0.00 0.00 0.00 39 1008.1
20260503191627 23 275 0.0 9.7 0.00 0.00 0.00 39 1008.0
20260503190057 23 256 1.6 8.0 0.00 0.00 0.00 38 1007.9
20260503184600 25 226 0.0 0.0 0.00 0.00 0.00 36 1007.7
20260503183113 25 226 0.0 0.0 0.00 0.00 0.00 34 1007.5
20260503181555 26 226 0.0 3.2 0.00 0.00 0.00 32 1007.4
20260503180055 26 226 3.2 9.7 0.00 0.00 0.00 31 1007.4
20260503174553 26 219 3.2 8.0 0.00 0.00 0.00 29 1007.4
20260503173115 27 190 6.4 14.5 0.00 0.00 0.00 30 1007.4
20260503171551 27 215 8.0 16.1 0.00 0.00 0.00 28 1007.4
20260503120108 27 235 4.8 22.5 0.00 0.00 0.00 27 1009.8
20260503081511 22 238 8.0 16.1 0.00 0.00 0.00 41 1011.5
20260503071616 19 206 4.8 9.7 0.00 0.00 0.00 47 1011.7
20260503070108 18 236 9.7 16.1 0.00 0.00 0.00 47 1011.7
20260503054541 16 202 3.2 17.7 0.00 0.00 0.00 52 1011.6
20260503053041 16 234 8.0 16.1 0.00 0.00 0.00 54 1011.6
20260503051536 15 234 4.8 12.9 0.00 0.00 0.00 54 1011.5
20260503050036 15 205 6.4 12.9 0.00 0.00 0.00 59 1011.7
20260503044534 14 217 3.2 9.7 0.00 0.00 0.00 61 1011.6
20260503043040 13 188 1.6 9.7 0.00 0.00 0.00 59 1011.5
20260503041533 13 207 6.4 11.3 0.00 0.00 0.00 59 1011.8
20260503040039 13 211 3.2 9.7 0.00 0.00 0.00 58 1011.8
20260503034541 13 236 1.6 8.0 0.00 0.00 0.00 57 1011.9